Location: Alto Pass Reservoir
(37.5801°N, 89.3084°W)
Time: 08:23:46
(UTC+00:00)

Cosmos 1666 - Pass Details

Date: 06 July 2022
Orbit: 489 x 511 km, 82.5° (Epoch: 07 August)

Event Time Altitude Azimuth Distance (km) Brightness Sun altitude
Exits shadow 09:30:33 18° 248° (WSW) 1,275 4.1 -12.3°
Maximum altitude 09:32:05 23° 283° (WNW) 1,091 4.0 -12.1°
Drops below altitude 10° 09:35:07 10° 338° (NNW) 1,704 5.6 -11.7°
Sets 09:37:33 0° 353° (N) 2,588 6.8 -11.3°
